Weather History for Campo, CA

Change the Weather History Date:

Sunday, October 28, 2012

  Actual Average Record
Temperature  
Mean Temperature 62 °F 58 °F  
Max Temperature 85 °F 76 °F 92 °F (1990)
Min Temperature 39 °F 40 °F 27 °F (1989)
Degree Days  
Heating Degree Days 3 7  
Month to date heating degree days 115 137  
Since 1 July heating degree days 124 187  
Cooling Degree Days 0 0  
Month to date cooling degree days 33 27  
Year to date cooling degree days 942 838  
Growing Degree Days 12 (Base 50)    
Moisture  
Dew Point 15 °F    
Average Humidity 21    
Maximum Humidity 37    
Minimum Humidity 5    
Precipitation  
Precipitation 0.00 in 0.04 in 0.63 in (1974)
Month to date precipitation 0.34 0.72  
Year to date precipitation 7.81 12.23  
Since 1 July precipitation 1.76 2.08  
Snow  
Snow 0.00 in - - ()
Month to date snowfall 0.0  
Year to date snowfall 0.0  
Since 1 July snowfall 0.0  
Snow Depth 0.00 in    
Sea Level Pressure  
Sea Level Pressure 29.93 in    
Wind  
Wind Speed 8 mph (ENE)    
Max Wind Speed 18 mph    
Max Gust Speed 23 mph    
T = Trace of Precipitation, MM = Missing Value Source: NWS Daily Summary

Daily Weather History Graph

Daily Weather History Graph

Search for Another Location

Airport:

Trip Planner

Search our weather history database for the weather conditions in past years. The results will help you decide how hot, cold, wet, or windy it might be!

Date:

Astronomy

Oct. 28, 2012 Rise Set
Actual Time 7:00 AM PDT 5:58 PM PDT
Civil Twilight 6:35 AM PDT 6:23 PM PDT
Nautical Twilight 6:06 AM PDT 6:52 PM PDT
Astronomical Twilight 5:37 AM PDT 7:21 PM PDT
Moon 5:18 PM PDT (10/28) 5:59 AM PDT (10/28)
Length of Visible Light 11h 48m
Length of Day
10h 57m
Waxing Gibbous, 99% of the Moon is Illuminated
Oct 28
Waxing Gibbous
Oct 29
Full
Nov 6
Last Quarter
Nov 13
New
Nov 20
First Quarter

Hourly Weather History & Observations

Time (PDT) Temp. Windchill Dew Point Humidity Pressure Visibility Wind Dir Wind Speed Gust Speed Precip Events Conditions
12:52 AM 48.9 °F - 14.0 °F 25% 29.90 in - ENE 3.5 mph - N/A   Unknown
1:52 AM 50.0 °F - 14.0 °F 24% 29.90 in - NE 3.5 mph - N/A   Unknown
2:52 AM 48.0 °F - 14.0 °F 26% 29.89 in - Calm Calm - N/A   Unknown
3:52 AM 46.9 °F - 14.0 °F 27% 29.88 in - NNE 3.5 mph - N/A   Unknown
4:52 AM 45.0 °F 43.5 °F 14.0 °F 29% 29.89 in - North 3.5 mph - N/A   Unknown
5:52 AM 39.9 °F 37.8 °F 15.1 °F 36% 29.91 in - NNE 3.5 mph - N/A   Unknown
6:52 AM 41.0 °F 38.0 °F 15.1 °F 35% 29.93 in - NE 4.6 mph - N/A   Unknown
7:52 AM 45.0 °F 43.5 °F 18.0 °F 34% 29.95 in - NE 3.5 mph - N/A   Unknown
8:52 AM 62.1 °F - 21.9 °F 21% 29.94 in - Calm Calm - N/A   Unknown
9:52 AM 78.1 °F - 12.0 °F 8% 29.91 in - ENE 15.0 mph - N/A   Unknown
10:52 AM 80.1 °F - 10.9 °F 7% 29.92 in - ENE 15.0 mph - N/A   Unknown
11:52 AM 82.0 °F - 10.0 °F 7% 29.91 in - East 13.8 mph 21.9 mph N/A   Unknown
12:52 PM 84.0 °F - 9.0 °F 6% 29.89 in - ENE 12.7 mph 21.9 mph N/A   Unknown
1:52 PM 84.0 °F - 6.1 °F 5% 29.87 in - ENE 15.0 mph 19.6 mph N/A   Unknown
2:52 PM 84.0 °F - 5.0 °F 5% 29.87 in - East 9.2 mph - N/A   Unknown
3:34 PM 82.4 °F - 17.6 °F 9% 29.95 in - SSW 17.3 mph - N/A   Unknown
3:52 PM 81.0 °F - 18.0 °F 10% 29.88 in - SW 15.0 mph - N/A   Unknown
4:52 PM 77.0 °F - 19.0 °F 11% 29.90 in - SW 12.7 mph - N/A   Unknown
5:52 PM 70.0 °F - 19.0 °F 14% 29.94 in - SSW 9.2 mph - N/A   Unknown
6:52 PM 63.0 °F - 19.0 °F 18% 29.97 in - Calm Calm - N/A   Unknown
7:52 PM 54.0 °F - 19.9 °F 26% 30.00 in - NE 5.8 mph - N/A   Unknown
8:52 PM 51.1 °F - 19.0 °F 28% 30.00 in - ENE 6.9 mph - N/A   Unknown
9:52 PM 48.0 °F - 19.0 °F 32% 30.00 in - ENE 6.9 mph - N/A   Unknown
10:52 PM 46.9 °F - 19.0 °F 33% 30.00 in - NNE 5.8 mph - N/A   Unknown
11:52 PM 44.1 °F 40.1 °F 19.0 °F 37% 30.01 in - ENE 6.9 mph - N/A   Unknown